Weather History for Casa Grande, AZ

Change the Weather History Date:

Wednesday, August 8, 2012

  Actual Average Record
Temperature  
Mean Temperature 98 °F -  
Max Temperature 111 °F 100 °F 111 °F (2012)
Min Temperature 86 °F 76 °F 69 °F (1997)
Cooling Degree Days 34    
Growing Degree Days 48 (Base 50)    
Moisture  
Dew Point 57 °F    
Average Humidity 26    
Maximum Humidity 43    
Minimum Humidity 16    
Precipitation  
Precipitation 0.00 in - - ()
Sea Level Pressure  
Sea Level Pressure 29.86 in    
Wind  
Wind Speed 8 mph (WSW)    
Max Wind Speed 29 mph    
Max Gust Speed 36 mph    
Visibility 10 miles    
Events      
Averages and records for this station are not official NWS values.
T = Trace of Precipitation, MM = Missing Value Source: NWS Daily Summary

Daily Weather History Graph

Daily Weather History Graph

Search for Another Location

Airport:

Trip Planner

Search our weather history database for the weather conditions in past years. The results will help you decide how hot, cold, wet, or windy it might be!

Date:

Astronomy

Aug. 08, 2012 Rise Set
Actual Time 5:45 AM MST 7:18 PM MST
Civil Twilight 5:19 AM MST 7:45 PM MST
Nautical Twilight 4:47 AM MST 8:17 PM MST
Astronomical Twilight 4:14 AM MST 8:50 PM MST
Moon 11:02 PM MST (8/8) 12:08 PM MST (8/8)
Length of Visible Light 14h 26m
Length of Day
13h 33m
Waning Gibbous, 59% of the Moon is Illuminated
Aug 8
Waning Gibbous
Aug 9
Last Quarter
Aug 17
New
Aug 24
First Quarter
Aug 31
Full

Hourly Weather History & Observations

Time (MST) Temp. Heat Index Dew Point Humidity Pressure Visibility Wind Dir Wind Speed Gust Speed Precip Events Conditions
12:15 AM 95.0 °F 93.0 °F 55.4 °F 26% 29.85 in 10.0 mi West 10.4 mph - N/A   Clear
12:35 AM 93.2 °F 91.9 °F 57.2 °F 30% 29.85 in 10.0 mi West 11.5 mph - N/A   Clear
12:55 AM 93.2 °F 91.3 °F 55.4 °F 28% 29.85 in 10.0 mi West 9.2 mph - N/A   Clear
1:15 AM 93.2 °F 91.3 °F 55.4 °F 28% 29.85 in 10.0 mi West 10.4 mph - N/A   Clear
1:35 AM 93.2 °F 91.9 °F 57.2 °F 30% 29.85 in 10.0 mi West 9.2 mph - N/A   Clear
1:55 AM 93.2 °F 91.9 °F 57.2 °F 30% 29.85 in 10.0 mi West 10.4 mph - N/A   Clear
2:15 AM 93.2 °F 91.9 °F 57.2 °F 30% 29.84 in 10.0 mi WNW 12.7 mph - N/A   Clear
2:35 AM 93.2 °F 91.9 °F 57.2 °F 30% 29.85 in 10.0 mi WNW 11.5 mph - N/A   Clear
2:55 AM 93.2 °F 91.9 °F 57.2 °F 30% 29.85 in 10.0 mi WNW 11.5 mph - N/A   Clear
3:15 AM 93.2 °F 91.9 °F 57.2 °F 30% 29.86 in 10.0 mi West 6.9 mph - N/A   Clear
3:35 AM 91.4 °F 89.9 °F 57.2 °F 31% 29.86 in 10.0 mi West 6.9 mph - N/A   Clear
3:55 AM 89.6 °F 88.9 °F 59.0 °F 36% 29.87 in 10.0 mi South 9.2 mph - N/A   Clear
4:15 AM 89.6 °F 88.9 °F 59.0 °F 36% 29.88 in 10.0 mi SSW 5.8 mph - N/A   Clear
4:35 AM 89.6 °F 88.1 °F 57.2 °F 33% 29.89 in 10.0 mi SW 5.8 mph - N/A   Clear
4:55 AM 87.8 °F 86.5 °F 57.2 °F 35% 29.89 in 10.0 mi SW 3.5 mph - N/A   Clear
5:15 AM 89.6 °F 89.5 °F 60.8 °F 38% 29.89 in 10.0 mi SSW 5.8 mph - N/A   Clear
5:35 AM 87.8 °F 87.6 °F 60.8 °F 40% 29.89 in 10.0 mi SW 5.8 mph - N/A   Clear
5:55 AM 87.8 °F 87.6 °F 60.8 °F 40% 29.89 in 10.0 mi Calm Calm - N/A   Clear
6:15 AM 86.0 °F 86.1 °F 60.8 °F 43% 29.90 in 10.0 mi NE 5.8 mph - N/A   Clear
6:35 AM 89.6 °F 89.5 °F 60.8 °F 38% 29.90 in 10.0 mi Calm Calm - N/A   Clear
6:55 AM 89.6 °F 89.5 °F 60.8 °F 38% 29.91 in 10.0 mi Calm Calm - N/A   Clear
7:15 AM 91.4 °F 91.4 °F 60.8 °F 36% 29.92 in 10.0 mi Calm Calm - N/A   Clear
7:35 AM 91.4 °F 91.4 °F 60.8 °F 36% 29.92 in 10.0 mi SE 3.5 mph - N/A   Clear
7:55 AM 93.2 °F 93.3 °F 60.8 °F 34% 29.91 in 10.0 mi Calm Calm - N/A   Clear
8:15 AM 93.2 °F 93.3 °F 60.8 °F 34% 29.91 in 10.0 mi Calm Calm - N/A   Clear
8:35 AM 96.8 °F 97.1 °F 60.8 °F 30% 29.92 in 10.0 mi Calm Calm - N/A   Clear
8:55 AM 96.8 °F 97.1 °F 60.8 °F 30% 29.92 in 10.0 mi Calm Calm - N/A   Clear
9:15 AM 96.8 °F 97.1 °F 60.8 °F 30% 29.92 in 10.0 mi Calm Calm - N/A   Clear
9:35 AM 98.6 °F 99.4 °F 60.8 °F 29% 29.92 in 10.0 mi Calm Calm - N/A   Clear
9:55 AM 100.4 °F 101.3 °F 60.8 °F 27% 29.92 in 10.0 mi East 4.6 mph - N/A   Clear
10:15 AM 102.2 °F 103.6 °F 60.8 °F 26% 29.92 in 10.0 mi North 5.8 mph - N/A   Clear
10:35 AM 102.2 °F 102.4 °F 59.0 °F 24% 29.91 in 10.0 mi North 3.5 mph - N/A   Clear
10:55 AM 102.2 °F 103.6 °F 60.8 °F 26% 29.91 in 10.0 mi Calm Calm - N/A   Clear
11:15 AM 102.2 °F 102.4 °F 59.0 °F 24% 29.90 in 10.0 mi Calm Calm - N/A   Clear
11:35 AM 105.8 °F 106.8 °F 59.0 °F 22% 29.90 in 10.0 mi NNW 5.8 mph - N/A   Clear
11:55 AM 105.8 °F 106.8 °F 59.0 °F 22% 29.89 in 10.0 mi West 5.8 mph - N/A   Clear
12:15 PM 105.8 °F 106.8 °F 59.0 °F 22% 29.88 in 10.0 mi Calm Calm - N/A   Clear
12:35 PM 105.8 °F 106.8 °F 59.0 °F 22% 29.87 in 10.0 mi West 8.1 mph - N/A   Clear
12:55 PM 107.6 °F 108.2 °F 59.0 °F 20% 29.87 in 10.0 mi West 4.6 mph - N/A   Clear
1:15 PM 107.6 °F 108.2 °F 59.0 °F 20% 29.86 in 10.0 mi WSW 10.4 mph - N/A   Clear
1:35 PM 107.6 °F 108.2 °F 59.0 °F 20% 29.85 in 10.0 mi SW 6.9 mph 17.3 mph N/A   Clear
1:55 PM 109.4 °F 110.2 °F 59.0 °F 19% 29.84 in 10.0 mi West 8.1 mph - N/A   Clear
2:15 PM 107.6 °F 107.5 °F 57.2 °F 19% 29.83 in 10.0 mi WSW 10.4 mph - N/A   Clear
2:35 PM 109.4 °F 109.4 °F 57.2 °F 18% 29.82 in 10.0 mi SW 12.7 mph - N/A   Clear
2:55 PM 109.4 °F 109.4 °F 57.2 °F 18% 29.81 in 10.0 mi Calm Calm - N/A   Clear
3:15 PM 109.4 °F 109.4 °F 57.2 °F 18% 29.80 in 10.0 mi WNW 12.7 mph 16.1 mph N/A   Clear
3:35 PM 111.2 °F 110.4 °F 55.4 °F 16% 29.79 in 10.0 mi WSW 8.1 mph 17.3 mph N/A   Clear
3:55 PM 111.2 °F 110.4 °F 55.4 °F 16% 29.79 in 10.0 mi West 12.7 mph 19.6 mph N/A   Clear
4:15 PM 111.2 °F 110.4 °F 55.4 °F 16% 29.78 in 10.0 mi WNW 11.5 mph - N/A   Clear
4:35 PM 111.2 °F 110.4 °F 55.4 °F 16% 29.78 in 10.0 mi West 11.5 mph 16.1 mph N/A   Clear
4:55 PM 111.2 °F 110.4 °F 55.4 °F 16% 29.77 in 10.0 mi WSW 10.4 mph 19.6 mph N/A   Clear
5:15 PM 111.2 °F 110.4 °F 55.4 °F 16% 29.76 in 10.0 mi WSW 12.7 mph 18.4 mph N/A   Clear
5:35 PM 111.2 °F 110.4 °F 55.4 °F 16% 29.76 in 10.0 mi West 15.0 mph - N/A   Clear
5:55 PM 109.4 °F 107.9 °F 53.6 °F 16% 29.76 in 10.0 mi West 9.2 mph - N/A   Clear
6:15 PM 109.4 °F 107.9 °F 53.6 °F 16% 29.77 in 10.0 mi West 12.7 mph - N/A   Clear
6:35 PM 109.4 °F 107.9 °F 53.6 °F 16% 29.78 in 10.0 mi West 9.2 mph - N/A   Clear
6:55 PM 109.4 °F 107.9 °F 53.6 °F 16% 29.82 in 5.0 mi East 25.3 mph 31.1 mph N/A   Clear
7:15 PM 100.4 °F 98.8 °F 55.4 °F 22% 29.82 in 5.0 mi East 28.8 mph 35.7 mph N/A   Clear
7:35 PM 100.4 °F 98.8 °F 55.4 °F 22% 29.81 in 9.0 mi East 23.0 mph 32.2 mph N/A   Clear
7:55 PM 98.6 °F 97.2 °F 55.4 °F 24% 29.82 in 10.0 mi East 21.9 mph 31.1 mph N/A   Clear
8:15 PM 98.6 °F 96.4 °F 53.6 °F 22% 29.83 in 10.0 mi East 19.6 mph 28.8 mph N/A   Clear
8:35 PM 98.6 °F 96.4 °F 53.6 °F 22% 29.84 in 10.0 mi East 16.1 mph - N/A   Clear
8:55 PM 98.6 °F 96.4 °F 53.6 °F 22% 29.87 in 10.0 mi East 13.8 mph - N/A   Clear
9:15 PM 98.6 °F 96.4 °F 53.6 °F 22% 29.89 in 10.0 mi ESE 8.1 mph - N/A   Clear
9:35 PM 98.6 °F 96.4 °F 53.6 °F 22% 29.89 in 10.0 mi East 9.2 mph - N/A   Clear
9:55 PM 96.8 °F 95.1 °F 55.4 °F 25% 29.90 in 10.0 mi ENE 9.2 mph - N/A   Clear
10:15 PM 98.6 °F 96.4 °F 53.6 °F 22% 29.89 in 10.0 mi NE 10.4 mph - N/A   Clear
10:35 PM 98.6 °F 96.4 °F 53.6 °F 22% 29.89 in 10.0 mi East 12.7 mph 16.1 mph N/A   Clear
10:55 PM 96.8 °F 95.1 °F 55.4 °F 25% 29.88 in 10.0 mi SE 10.4 mph - N/A   Partly Cloudy
11:15 PM 102.2 °F - 51.8 °F 18% 29.86 in 9.0 mi SSE 15.0 mph 34.5 mph N/A   Mostly Cloudy
11:35 PM 96.8 °F 95.1 °F 55.4 °F 25% 29.88 in 10.0 mi SSE 8.1 mph - N/A   Scattered Clouds
11:55 PM 96.8 °F 95.1 °F 55.4 °F 25% 29.88 in 10.0 mi SE 19.6 mph 32.2 mph N/A   Partly Cloudy